TimePDT,TemperatureF,Dew PointF,Humidity,Sea Level PressureIn,VisibilityMPH,Wind Direction,Wind SpeedMPH,Gust SpeedMPH,PrecipitationIn,Events,Conditions,WindDirDegrees,DateUTC
12:53 AM,62.1,39.0,43,29.81,10.0,SW,12.7,-,N/A,,Clear,220,2012-05-16 07:53:00
1:53 AM,60.1,37.9,44,29.81,10.0,South,5.8,-,N/A,,Clear,190,2012-05-16 08:53:00
2:53 AM,55.9,41.0,57,29.82,10.0,South,9.2,-,N/A,,Clear,170,2012-05-16 09:53:00
3:53 AM,57.0,39.0,51,29.83,10.0,South,9.2,-,N/A,,Partly Cloudy,180,2012-05-16 10:53:00
4:53 AM,55.9,37.0,49,29.83,10.0,SSW,10.4,-,N/A,,Scattered Clouds,200,2012-05-16 11:53:00
5:53 AM,55.0,37.9,53,29.85,10.0,South,15.0,-,N/A,,Mostly Cloudy,190,2012-05-16 12:53:00
6:53 AM,55.9,37.0,49,29.86,10.0,SSW,15.0,-,N/A,,Mostly Cloudy,200,2012-05-16 13:53:00
7:53 AM,59.0,34.0,39,29.88,10.0,South,13.8,-,N/A,,Mostly Cloudy,190,2012-05-16 14:53:00
8:53 AM,62.1,33.1,34,29.88,10.0,SW,13.8,-,N/A,,Mostly Cloudy,220,2012-05-16 15:53:00
9:53 AM,64.0,33.1,31,29.88,10.0,SW,10.4,-,N/A,,Mostly Cloudy,230,2012-05-16 16:53:00
10:53 AM,66.0,35.1,32,29.90,10.0,SW,16.1,-,N/A,,Mostly Cloudy,220,2012-05-16 17:53:00
11:53 AM,70.0,37.0,30,29.88,10.0,SSW,10.4,-,N/A,,Mostly Cloudy,200,2012-05-16 18:53:00
12:53 PM,73.0,33.1,23,29.87,10.0,SW,15.0,-,N/A,,Overcast,220,2012-05-16 19:53:00
1:53 PM,75.0,19.9,13,29.86,10.0,SW,17.3,23.0,N/A,,Overcast,230,2012-05-16 20:53:00
2:53 PM,77.0,27.0,16,29.84,10.0,SW,17.3,27.6,N/A,,Mostly Cloudy,230,2012-05-16 21:53:00
3:53 PM,75.9,21.9,13,29.84,10.0,WSW,16.1,28.8,N/A,,Mostly Cloudy,240,2012-05-16 22:53:00
4:53 PM,75.0,24.1,15,29.83,10.0,SW,18.4,-,N/A,,Overcast,230,2012-05-16 23:53:00
5:53 PM,73.0,19.0,13,29.83,10.0,West,15.0,-,N/A,,Overcast,260,2012-05-17 00:53:00
6:53 PM,71.1,26.1,19,29.82,10.0,West,15.0,-,N/A,,Mostly Cloudy,270,2012-05-17 01:53:00
7:53 PM,66.9,28.0,23,29.83,10.0,WSW,11.5,-,N/A,,Scattered Clouds,250,2012-05-17 02:53:00
8:53 PM,60.1,33.1,36,29.83,10.0,WSW,4.6,-,N/A,,Scattered Clouds,250,2012-05-17 03:53:00
9:53 PM,57.9,33.1,39,29.83,10.0,WSW,8.1,-,N/A,,Scattered Clouds,240,2012-05-17 04:53:00
10:53 PM,55.9,34.0,44,29.82,10.0,SW,9.2,-,N/A,,Scattered Clouds,220,2012-05-17 05:53:00
11:53 PM,55.0,34.0,45,29.82,10.0,WSW,8.1,-,N/A,,Mostly Cloudy,240,2012-05-17 06:53:00